﻿測定場所 (Monitoring sites),日付 (Measurement date),時間 (Measurement time),線量率 最大値 (max) μGy/h,線量率 最小値 (min) μGy/h,線量率 平均値 (average) μGy/h,
大田 (Ota),2012-12-16,23:01～24:00,0.0571,0.0482,0.0514,
大田 (Ota),2012-12-16,22:01～23:00,0.0561,0.0471,0.0512,
大田 (Ota),2012-12-16,21:01～22:00,0.0547,0.0478,0.0512,
大田 (Ota),2012-12-16,20:01～21:00,0.0550,0.0470,0.0510,
大田 (Ota),2012-12-16,19:01～20:00,0.0556,0.0477,0.0516,
大田 (Ota),2012-12-16,18:01～19:00,0.0547,0.0481,0.0516,
大田 (Ota),2012-12-16,17:01～18:00,0.0550,0.0475,0.0510,
大田 (Ota),2012-12-16,16:01～17:00,0.0552,0.0476,0.0516,
大田 (Ota),2012-12-16,15:01～16:00,0.0555,0.0474,0.0517,
大田 (Ota),2012-12-16,14:01～15:00,0.0542,0.0477,0.0513,
大田 (Ota),2012-12-16,13:01～14:00,0.0545,0.0481,0.0513,
大田 (Ota),2012-12-16,12:01～13:00,0.0547,0.0480,0.0510,
大田 (Ota),2012-12-16,11:01～12:00,0.0540,0.0474,0.0515,
大田 (Ota),2012-12-16,10:01～11:00,0.0551,0.0480,0.0517,
大田 (Ota),2012-12-16,09:01～10:00,0.0546,0.0483,0.0515,
大田 (Ota),2012-12-16,08:01～09:00,0.0546,0.0478,0.0514,
大田 (Ota),2012-12-16,07:01～08:00,0.0545,0.0464,0.0513,
大田 (Ota),2012-12-16,06:01～07:00,0.0547,0.0485,0.0520,
大田 (Ota),2012-12-16,05:01～06:00,0.0560,0.0500,0.0528,
大田 (Ota),2012-12-16,04:01～05:00,0.0590,0.0503,0.0538,
大田 (Ota),2012-12-16,03:01～04:00,0.0642,0.0531,0.0590,
大田 (Ota),2012-12-16,02:01～03:00,0.0730,0.0606,0.0660,
大田 (Ota),2012-12-16,01:01～02:00,0.0690,0.0510,0.0585,
大田 (Ota),2012-12-16,00:01～01:00,0.0564,0.0487,0.0523,
大田 (Ota),2012-12-15,23:01～24:00,0.0570,0.0484,0.0519,
大田 (Ota),2012-12-15,22:01～23:00,0.0552,0.0482,0.0517,
大田 (Ota),2012-12-15,21:01～22:00,0.0554,0.0482,0.0517,
大田 (Ota),2012-12-15,20:01～21:00,0.0552,0.0489,0.0516,
大田 (Ota),2012-12-15,19:01～20:00,0.0541,0.0481,0.0511,
大田 (Ota),2012-12-15,18:01～19:00,0.0558,0.0488,0.0514,
大田 (Ota),2012-12-15,17:01～18:00,0.0548,0.0491,0.0524,
大田 (Ota),2012-12-15,16:01～17:00,0.0575,0.0494,0.0532,
大田 (Ota),2012-12-15,15:01～16:00,0.0590,0.0510,0.0544,
大田 (Ota),2012-12-15,14:01～15:00,0.0599,0.0527,0.0566,
大田 (Ota),2012-12-15,13:01～14:00,0.0604,0.0533,0.0563,
大田 (Ota),2012-12-15,12:01～13:00,0.0586,0.0522,0.0553,
大田 (Ota),2012-12-15,11:01～12:00,0.0580,0.0510,0.0545,
大田 (Ota),2012-12-15,10:01～11:00,0.0579,0.0499,0.0525,
大田 (Ota),2012-12-15,09:01～10:00,0.0546,0.0483,0.0518,
大田 (Ota),2012-12-15,08:01～09:00,0.0567,0.0487,0.0525,
大田 (Ota),2012-12-15,07:01～08:00,0.0554,0.0475,0.0512,
大田 (Ota),2012-12-15,06:01～07:00,0.0538,0.0476,0.0510,
大田 (Ota),2012-12-15,05:01～06:00,0.0568,0.0489,0.0524,
大田 (Ota),2012-12-15,04:01～05:00,0.0593,0.0498,0.0533,
大田 (Ota),2012-12-15,03:01～04:00,0.0634,0.0526,0.0578,
大田 (Ota),2012-12-15,02:01～03:00,0.0605,0.0527,0.0562,
大田 (Ota),2012-12-15,01:01～02:00,0.0593,0.0495,0.0542,
大田 (Ota),2012-12-15,00:01～01:00,0.0556,0.0488,0.0519,
大田 (Ota),2012-12-14,23:01～24:00,0.0559,0.0493,0.0519,
大田 (Ota),2012-12-14,22:01～23:00,0.0555,0.0486,0.0516,
大田 (Ota),2012-12-14,21:01～22:00,0.0568,0.0489,0.0517,
大田 (Ota),2012-12-14,20:01～21:00,0.0566,0.0490,0.0518,
大田 (Ota),2012-12-14,19:01～20:00,0.0549,0.0484,0.0515,
大田 (Ota),2012-12-14,18:01～19:00,0.0548,0.0481,0.0513,
大田 (Ota),2012-12-14,17:01～18:00,0.0549,0.0480,0.0509,
大田 (Ota),2012-12-14,16:01～17:00,0.0546,0.0476,0.0510,
大田 (Ota),2012-12-14,15:01～16:00,0.0546,0.0472,0.0515,
大田 (Ota),2012-12-14,14:01～15:00,0.0542,0.0492,0.0516,
大田 (Ota),2012-12-14,13:01～14:00,0.0539,0.0483,0.0513,
大田 (Ota),2012-12-14,12:01～13:00,0.0550,0.0473,0.0514,
大田 (Ota),2012-12-14,11:01～12:00,0.0567,0.0481,0.0518,
大田 (Ota),2012-12-14,10:01～11:00,0.0563,0.0482,0.0520,
大田 (Ota),2012-12-14,09:01～10:00,0.0559,0.0493,0.0523,
大田 (Ota),2012-12-14,08:01～09:00,0.0563,0.0490,0.0517,
大田 (Ota),2012-12-14,07:01～08:00,0.0561,0.0483,0.0517,
大田 (Ota),2012-12-14,06:01～07:00,0.0541,0.0480,0.0515,
大田 (Ota),2012-12-14,05:01～06:00,0.0539,0.0470,0.0513,
大田 (Ota),2012-12-14,04:01～05:00,0.0537,0.0478,0.0510,
大田 (Ota),2012-12-14,03:01～04:00,0.0535,0.0472,0.0508,
大田 (Ota),2012-12-14,02:01～03:00,0.0545,0.0474,0.0510,
大田 (Ota),2012-12-14,01:01～02:00,0.0546,0.0468,0.0512,
大田 (Ota),2012-12-14,00:01～01:00,0.0563,0.0478,0.0514,
大田 (Ota),2012-12-13,23:01～24:00,0.0552,0.0480,0.0508,
大田 (Ota),2012-12-13,22:01～23:00,0.0536,0.0480,0.0508,
大田 (Ota),2012-12-13,21:01～22:00,0.0537,0.0481,0.0506,
大田 (Ota),2012-12-13,20:01～21:00,0.0533,0.0473,0.0510,
大田 (Ota),2012-12-13,19:01～20:00,0.0554,0.0488,0.0513,
大田 (Ota),2012-12-13,18:01～19:00,0.0546,0.0476,0.0513,
大田 (Ota),2012-12-13,17:01～18:00,0.0540,0.0476,0.0511,
大田 (Ota),2012-12-13,16:01～17:00,0.0554,0.0467,0.0509,
大田 (Ota),2012-12-13,15:01～16:00,0.0545,0.0474,0.0514,
大田 (Ota),2012-12-13,14:01～15:00,0.0546,0.0484,0.0512,
大田 (Ota),2012-12-13,13:01～14:00,0.0561,0.0481,0.0514,
大田 (Ota),2012-12-13,12:01～13:00,0.0551,0.0469,0.0512,
大田 (Ota),2012-12-13,11:01～12:00,0.0532,0.0473,0.0507,
大田 (Ota),2012-12-13,10:01～11:00,0.0536,0.0466,0.0508,
大田 (Ota),2012-12-13,09:01～10:00,0.0558,0.0485,0.0513,
大田 (Ota),2012-12-13,08:01～09:00,0.0567,0.0490,0.0524,
大田 (Ota),2012-12-13,07:01～08:00,0.0546,0.0483,0.0516,
大田 (Ota),2012-12-13,06:01～07:00,0.0545,0.0481,0.0513,
大田 (Ota),2012-12-13,05:01～06:00,0.0552,0.0486,0.0515,
大田 (Ota),2012-12-13,04:01～05:00,0.0547,0.0477,0.0515,
大田 (Ota),2012-12-13,03:01～04:00,0.0541,0.0485,0.0515,
大田 (Ota),2012-12-13,02:01～03:00,0.0554,0.0473,0.0512,
大田 (Ota),2012-12-13,01:01～02:00,0.0551,0.0483,0.0511,
大田 (Ota),2012-12-13,00:01～01:00,0.0551,0.0476,0.0513,
大田 (Ota),2012-12-12,23:01～24:00,0.0539,0.0470,0.0508,
大田 (Ota),2012-12-12,22:01～23:00,0.0534,0.0474,0.0509,
大田 (Ota),2012-12-12,21:01～22:00,0.0535,0.0476,0.0508,
大田 (Ota),2012-12-12,20:01～21:00,0.0538,0.0463,0.0509,
大田 (Ota),2012-12-12,19:01～20:00,0.0540,0.0468,0.0510,
大田 (Ota),2012-12-12,18:01～19:00,0.0549,0.0483,0.0511,
大田 (Ota),2012-12-12,17:01～18:00,0.0540,0.0479,0.0515,
大田 (Ota),2012-12-12,16:01～17:00,0.0546,0.0478,0.0512,
大田 (Ota),2012-12-12,15:01～16:00,0.0549,0.0468,0.0511,
大田 (Ota),2012-12-12,14:01～15:00,0.0542,0.0481,0.0514,
大田 (Ota),2012-12-12,13:01～14:00,0.0542,0.0473,0.0513,
大田 (Ota),2012-12-12,12:01～13:00,0.0554,0.0491,0.0513,
大田 (Ota),2012-12-12,11:01～12:00,0.0546,0.0477,0.0513,
大田 (Ota),2012-12-12,10:01～11:00,0.0554,0.0488,0.0522,
大田 (Ota),2012-12-12,09:01～10:00,0.0552,0.0492,0.0522,
大田 (Ota),2012-12-12,08:01～09:00,0.0560,0.0488,0.0523,
大田 (Ota),2012-12-12,07:01～08:00,0.0551,0.0482,0.0518,
大田 (Ota),2012-12-12,06:01～07:00,0.0565,0.0493,0.0521,
大田 (Ota),2012-12-12,05:01～06:00,0.0543,0.0482,0.0516,
大田 (Ota),2012-12-12,04:01～05:00,0.0553,0.0490,0.0517,
大田 (Ota),2012-12-12,03:01～04:00,0.0555,0.0488,0.0517,
大田 (Ota),2012-12-12,02:01～03:00,0.0554,0.0497,0.0522,
大田 (Ota),2012-12-12,01:01～02:00,0.0551,0.0479,0.0519,
大田 (Ota),2012-12-12,00:01～01:00,0.0547,0.0479,0.0515,
大田 (Ota),2012-12-11,23:01～24:00,0.0546,0.0472,0.0516,
大田 (Ota),2012-12-11,22:01～23:00,0.0554,0.0459,0.0515,
大田 (Ota),2012-12-11,21:01～22:00,0.0549,0.0480,0.0519,
大田 (Ota),2012-12-11,20:01～21:00,0.0560,0.0492,0.0517,
大田 (Ota),2012-12-11,19:01～20:00,0.0561,0.0487,0.0519,
大田 (Ota),2012-12-11,18:01～19:00,0.0558,0.0482,0.0522,
大田 (Ota),2012-12-11,17:01～18:00,0.0550,0.0473,0.0518,
大田 (Ota),2012-12-11,16:01～17:00,0.0538,0.0486,0.0516,
大田 (Ota),2012-12-11,15:01～16:00,0.0551,0.0488,0.0517,
大田 (Ota),2012-12-11,14:01～15:00,0.0543,0.0471,0.0516,
大田 (Ota),2012-12-11,13:01～14:00,0.0544,0.0483,0.0514,
大田 (Ota),2012-12-11,12:01～13:00,0.0552,0.0479,0.0522,
大田 (Ota),2012-12-11,11:01～12:00,0.0551,0.0491,0.0517,
大田 (Ota),2012-12-11,10:01～11:00,0.0564,0.0483,0.0523,
大田 (Ota),2012-12-11,09:01～10:00,0.0551,0.0492,0.0524,
大田 (Ota),2012-12-11,08:01～09:00,0.0565,0.0484,0.0524,
大田 (Ota),2012-12-11,07:01～08:00,0.0551,0.0483,0.0521,
大田 (Ota),2012-12-11,06:01～07:00,0.0552,0.0491,0.0520,
大田 (Ota),2012-12-11,05:01～06:00,0.0553,0.0494,0.0517,
大田 (Ota),2012-12-11,04:01～05:00,0.0551,0.0489,0.0518,
大田 (Ota),2012-12-11,03:01～04:00,0.0563,0.0485,0.0517,
大田 (Ota),2012-12-11,02:01～03:00,0.0555,0.0492,0.0520,
大田 (Ota),2012-12-11,01:01～02:00,0.0550,0.0483,0.0514,
大田 (Ota),2012-12-11,00:01～01:00,0.0547,0.0488,0.0517,
大田 (Ota),2012-12-10,23:01～24:00,0.0541,0.0471,0.0511,
大田 (Ota),2012-12-10,22:01～23:00,0.0545,0.0482,0.0513,
大田 (Ota),2012-12-10,21:01～22:00,0.0535,0.0478,0.0510,
大田 (Ota),2012-12-10,20:01～21:00,0.0541,0.0475,0.0513,
大田 (Ota),2012-12-10,19:01～20:00,0.0545,0.0480,0.0513,
大田 (Ota),2012-12-10,18:01～19:00,0.0556,0.0486,0.0520,
大田 (Ota),2012-12-10,17:01～18:00,0.0559,0.0490,0.0522,
大田 (Ota),2012-12-10,16:01～17:00,0.0565,0.0486,0.0522,
大田 (Ota),2012-12-10,15:01～16:00,0.0547,0.0477,0.0518,
大田 (Ota),2012-12-10,14:01～15:00,0.0566,0.0476,0.0518,
大田 (Ota),2012-12-10,13:01～14:00,0.0542,0.0476,0.0513,
大田 (Ota),2012-12-10,12:01～13:00,0.0551,0.0474,0.0515,
大田 (Ota),2012-12-10,11:01～12:00,0.0554,0.0471,0.0515,
大田 (Ota),2012-12-10,10:01～11:00,0.0564,0.0489,0.0520,
大田 (Ota),2012-12-10,09:01～10:00,0.0547,0.0483,0.0518,
大田 (Ota),2012-12-10,08:01～09:00,0.0542,0.0494,0.0519,
大田 (Ota),2012-12-10,07:01～08:00,0.0552,0.0480,0.0519,
大田 (Ota),2012-12-10,06:01～07:00,0.0562,0.0487,0.0519,
大田 (Ota),2012-12-10,05:01～06:00,0.0555,0.0477,0.0516,
大田 (Ota),2012-12-10,04:01～05:00,0.0541,0.0474,0.0512,
大田 (Ota),2012-12-10,03:01～04:00,0.0545,0.0471,0.0512,
大田 (Ota),2012-12-10,02:01～03:00,0.0545,0.0484,0.0513,
大田 (Ota),2012-12-10,01:01～02:00,0.0561,0.0469,0.0510,
大田 (Ota),2012-12-10,00:01～01:00,0.0548,0.0486,0.0517,
